When you browse on this site, cookies collect data to enhance your experience and personalize the content and advertising you see.
Visit our Privacy Policy to learn more. By continuing to use the site, you agree to this use of cookies and data.
  • In United Kingdom
  • List of Countries
  • For 7 days
  • Water Temperature
  • Weather Map
  • Weather Widgets
  • user-avatar
    Login

    Hourly Weather Gyomro

    Today, 19 January, Sunday

    Time Temperature Precipitation Wind Pressure Humidity
    00:00 -1°C° 0 mm 0 mps 753 mmHg 80%
    01:00 -1°C° 0 mm 0 mps 753 mmHg 80%
    02:00 -1°C° 0 mm 0 mps 752 mmHg 81%
    03:00 -1°C° 0 mm 0 mps 752 mmHg 82%
    04:00 -1°C° 0 mm 0 mps 752 mmHg 83%
    05:00 -1°C° 0 mm 0 mps 753 mmHg 85%
    06:00 -1°C° 0 mm 0 mps 753 mmHg 88%
    07:00 -2°C° 0 mm 0 mps 753 mmHg 90%
    08:00 -1°C° 0 mm 0 mps 753 mmHg 87%
    09:00 -1°C° 0 mm 0 mps 754 mmHg 85%
    10:00 0°C° 0 mm 0 mps 754 mmHg 83%
    11:00 0°C° 0 mm 0 mps 754 mmHg 79%
    12:00 0°C° 0 mm 0 mps 755 mmHg 75%
    13:00 +1°C° 0 mm 0 mps 755 mmHg 72%
    14:00 +1°C° 0 mm 0 mps 755 mmHg 73%
    15:00 0°C° 0 mm 0 mps 756 mmHg 75%
    16:00 0°C° 0 mm 0 mps 756 mmHg 76%
    17:00 -1°C° 0 mm 0 mps 757 mmHg 78%
    18:00 0°C° 0 mm 1 mps 757 mmHg 79%
    19:00 0°C° 0 mm 1 mps 758 mmHg 80%
    20:00 0°C° 0 mm 1 mps 758 mmHg 80%
    21:00 0°C° 0 mm 1 mps 759 mmHg 79%
    22:00 0°C° 0 mm 1 mps 759 mmHg 79%
    23:00 0°C° 0 mm 1 mps 760 mmHg 80%

    Tomorrow, 20 January, Monday

    Time Temperature Precipitation Wind Pressure Humidity
    00:00 +1°C° 0 mm 1 mps 760 mmHg 81%
    01:00 -1°C° 0 mm 2 mps 761 mmHg 83%
    02:00 -1°C° 0 mm 2 mps 761 mmHg 84%
    03:00 -1°C° 0 mm 2 mps 761 mmHg 86%
    04:00 +1°C° 0 mm 2 mps 762 mmHg 88%
    05:00 +1°C° 0 mm 2 mps 762 mmHg 88%
    06:00 +1°C° 0 mm 2 mps 763 mmHg 87%
    07:00 +1°C° 0 mm 2 mps 763 mmHg 87%
    08:00 +1°C° 0 mm 2 mps 764 mmHg 84%
    09:00 +2°C° 0 mm 2 mps 764 mmHg 80%
    10:00 +3°C° 0 mm 2 mps 765 mmHg 77%
    11:00 +3°C° 0 mm 2 mps 765 mmHg 73%
    12:00 +4°C° 0 mm 2 mps 765 mmHg 70%
    13:00 +6°C° 0 mm 1 mps 766 mmHg 66%
    14:00 +5°C° 0 mm 1 mps 766 mmHg 69%
    15:00 +4°C° 0 mm 1 mps 766 mmHg 72%
    16:00 +4°C° 0 mm 1 mps 766 mmHg 75%
    17:00 +3°C° 0 mm 1 mps 766 mmHg 77%
    18:00 +3°C° 0 mm 1 mps 766 mmHg 79%
    19:00 +2°C° 0 mm 1 mps 767 mmHg 81%
    20:00 +2°C° 0 mm 1 mps 767 mmHg 81%
    21:00 +2°C° 0 mm 1 mps 767 mmHg 82%
    22:00 +1°C° 0 mm 1 mps 767 mmHg 82%
    23:00 +1°C° 0 mm 1 mps 767 mmHg 83%

    Day after tomorrow, 21 January, Tuesday

    Time Temperature Precipitation Wind Pressure Humidity
    00:00 +1°C° 0 mm 1 mps 767 mmHg 84%
    01:00 +1°C° 0 mm 1 mps 767 mmHg 84%
    02:00 +1°C° 0 mm 1 mps 767 mmHg 85%
    03:00 +1°C° 0 mm 1 mps 767 mmHg 85%
    04:00 +1°C° 0 mm 1 mps 766 mmHg 86%
    05:00 +1°C° 0 mm 1 mps 766 mmHg 86%
    06:00 +1°C° 0 mm 1 mps 766 mmHg 87%
    07:00 0°C° 0 mm 1 mps 766 mmHg 87%
    08:00 +1°C° 0 mm 1 mps 766 mmHg 83%
    09:00 +2°C° 0 mm 1 mps 766 mmHg 78%
    10:00 +3°C° 0 mm 1 mps 766 mmHg 74%
    11:00 +3°C° 0 mm 2 mps 766 mmHg 71%
    12:00 +4°C° 0 mm 2 mps 765 mmHg 68%
    13:00 +4°C° 0 mm 2 mps 765 mmHg 64%
    14:00 +4°C° 0 mm 2 mps 764 mmHg 68%
    15:00 +4°C° 0 mm 1 mps 764 mmHg 72%
    16:00 +3°C° 0 mm 1 mps 763 mmHg 76%
    17:00 +2°C° 0 mm 1 mps 763 mmHg 79%
    18:00 +2°C° 0 mm 1 mps 763 mmHg 81%
    19:00 +1°C° 0 mm 1 mps 763 mmHg 84%
    20:00 +1°C° 0 mm 1 mps 763 mmHg 85%
    21:00 +1°C° 0 mm 1 mps 762 mmHg 86%
    22:00 -2°C° 0 mm 2 mps 762 mmHg 88%
    23:00 0°C° 0 mm 1 mps 762 mmHg 88%

    22 January, Wednesday

    Time Temperature Precipitation Wind Pressure Humidity
    00:00 0°C° 0 mm 1 mps 762 mmHg 89%
    01:00 0°C° 0 mm 1 mps 761 mmHg 90%
    02:00 -2°C° 0 mm 2 mps 761 mmHg 90%
    03:00 -2°C° 0 mm 2 mps 760 mmHg 90%
    04:00 -2°C° 0 mm 2 mps 760 mmHg 91%
    05:00 -2°C° 0 mm 2 mps 760 mmHg 91%
    06:00 -2°C° 0 mm 2 mps 760 mmHg 91%
    07:00 -2°C° 0 mm 2 mps 759 mmHg 91%
    08:00 -2°C° 0 mm 2 mps 759 mmHg 87%
    09:00 -1°C° 0 mm 2 mps 759 mmHg 83%
    10:00 0°C° 0 mm 3 mps 759 mmHg 79%
    11:00 0°C° 0 mm 3 mps 759 mmHg 77%
    12:00 0°C° 0 mm 3 mps 758 mmHg 76%
    13:00 +1°C° 0 mm 3 mps 758 mmHg 75%
    14:00 0°C° 0 mm 3 mps 757 mmHg 76%
    15:00 0°C° 0 mm 3 mps 756 mmHg 78%
    16:00 -1°C° 0 mm 2 mps 756 mmHg 80%
    17:00 -1°C° 0 mm 2 mps 756 mmHg 82%
    18:00 -2°C° 0 mm 2 mps 756 mmHg 84%
    19:00 -2°C° 0 mm 2 mps 756 mmHg 86%
    20:00 -2°C° 0 mm 2 mps 756 mmHg 86%
    21:00 -2°C° 0 mm 2 mps 756 mmHg 86%
    22:00 0°C° 0 mm 1 mps 756 mmHg 85%
    23:00 0°C° 0 mm 1 mps 756 mmHg 86%

    23 January, Thursday

    Time Temperature Precipitation Wind Pressure Humidity
    00:00 0°C° 0 mm 1 mps 756 mmHg 87%
    01:00 0°C° 0 mm 1 mps 757 mmHg 87%
    02:00 0°C° 0 mm 1 mps 757 mmHg 87%
    03:00 -1°C° 0 mm 1 mps 757 mmHg 87%
    04:00 -1°C° 0 mm 1 mps 757 mmHg 87%
    05:00 -1°C° 0 mm 1 mps 757 mmHg 87%
    06:00 -1°C° 0 mm 1 mps 758 mmHg 87%
    07:00 -1°C° 0 mm 1 mps 758 mmHg 87%
    08:00 0°C° 0 mm 1 mps 759 mmHg 82%
    09:00 +1°C° 0 mm 1 mps 759 mmHg 77%
    10:00 +2°C° 0 mm 1 mps 760 mmHg 73%
    11:00 +3°C° 0 mm 1 mps 760 mmHg 69%
    12:00 +4°C° 0 mm 1 mps 760 mmHg 65%
    13:00 +5°C° 0 mm 1 mps 760 mmHg 61%
    14:00 +4°C° 0 mm 1 mps 760 mmHg 64%
    15:00 +3°C° 0 mm 1 mps 760 mmHg 67%
    16:00 +2°C° 0 mm 1 mps 760 mmHg 69%
    17:00 +2°C° 0 mm 1 mps 760 mmHg 71%
    18:00 0°C° 0 mm 0 mps 760 mmHg 73%
    19:00 -1°C° 0 mm 0 mps 760 mmHg 75%
    20:00 -1°C° 0 mm 0 mps 760 mmHg 75%
    21:00 -1°C° 0 mm 0 mps 760 mmHg 76%
    22:00 -1°C° 0 mm 0 mps 760 mmHg 76%
    23:00 -1°C° 0 mm 0 mps 760 mmHg 76%

    24 January, Friday

    Time Temperature Precipitation Wind Pressure Humidity
    00:00 -1°C° 0 mm 0 mps 760 mmHg 77%
    01:00 0°C° 0 mm 1 mps 760 mmHg 77%
    02:00 -1°C° 0 mm 1 mps 759 mmHg 78%
    03:00 -1°C° 0 mm 1 mps 759 mmHg 79%
    04:00 -1°C° 0 mm 1 mps 759 mmHg 80%
    05:00 -1°C° 0 mm 1 mps 759 mmHg 81%
    06:00 -1°C° 0 mm 1 mps 758 mmHg 83%
    07:00 -1°C° 0 mm 1 mps 758 mmHg 84%
    08:00 -2°C° 0 mm 2 mps 758 mmHg 78%
    09:00 -2°C° 0 mm 2 mps 758 mmHg 73%
    10:00 -1°C° 0 mm 2 mps 758 mmHg 67%
    11:00 +1°C° 0 mm 2 mps 758 mmHg 63%
    12:00 +1°C° 0 mm 3 mps 757 mmHg 58%
    13:00 +2°C° 0 mm 3 mps 757 mmHg 53%
    14:00 +1°C° 0 mm 3 mps 756 mmHg 56%
    15:00 0°C° 0 mm 3 mps 756 mmHg 59%
    16:00 0°C° 0 mm 3 mps 755 mmHg 62%
    17:00 -1°C° 0 mm 3 mps 755 mmHg 65%
    18:00 -2°C° 0 mm 3 mps 755 mmHg 69%
    19:00 -2°C° 0 mm 3 mps 754 mmHg 72%
    20:00 -2°C° 0 mm 3 mps 754 mmHg 73%
    21:00 -4°C° 0 mm 3 mps 754 mmHg 74%
    22:00 -4°C° 0 mm 3 mps 754 mmHg 76%
    23:00 -4°C° 0 mm 3 mps 754 mmHg 76%
    Show more